Location: Unspecified
(51.0950°N, 12.9690°E)
Time: 22:48:51
(UTC+00:00)

SL-24 R/B - RUBIN 2 - Pass Details

Date: 28 October 2021
Orbit: 596 x 999 km, 64.6° (Epoch: 01 December)

Event Time Altitude Azimuth Distance (km) Brightness Sun altitude
Rises 18:39:55 0° 219° (SW) 3,550 7.8 -27.2°
Reaches altitude 10° 18:42:33 10° 220° (SW) 2,557 7.0 -27.6°
Enters shadow 18:47:55 73° 218° (SW) 869 4.2 -28.4°
